ONEWEB-0315, 49101

Orbit data source: Space-Track

ONEWEB-0315, 49101 is a payload satellite owned by One Web (NAA) (UK) in LEO that was launched on Sat, 21 Aug 2021 UTC via a SOYUZ-2-1B launch vehicle from the Tyuratam Missile And Space Complex (TTMTR). Payload-class satellites include a variety of spacecraft equipped with specific instruments for various scientific and technological missions. These include communications satellites like Starlink; space stations such as the ISS; scientific satellites like the Hubble; Earth observation satellites from companies like Planet Labs, Umbra, and HawkEye 360; GPS; miniature CubeSats for education and research; and military/defense satellites.

Loading next visibility...
Identifier
49101, 2021-075AC
Orbit
LEO
Country
Flag of UKUK
Related business
Manufacturer
One Web
Mission
Operational Commercial Communications
Bus & Motor
ARROW, Unknown motor
Mass
148 kg wet, ~140 kg dry
Launch date (UTC)
2021-08-21 (5 years ago)
Launch vehicle
SOYUZ-2-1B
Launch site
Tyuratam Missile And Space Complex (TTMTR)
Object type
Payload
Rocket body
Debris
Shape & HBR
Trap Box + 2 Pan, 6.7 m
Radar Cross Section
3.464 m², Large (>1 m²)

Expand to show TLE details & history
Last TLE update: 23 hours ago

TLE from 23 hours ago
0 ONEWEB-0315
1 49101U 21075AC  26175.22231748  .00000005  00000-0 -20844-4 0  9998
2 49101  87.8949 349.2451 0001987  81.4227 278.7127 13.12444862236098
Epoch: 2026-06-24T05:20Z
TLE epoch observation values (Epoch: 2026-06-24T05:20:08.230Z)
Latitude
0.00003°
Longitude
-3.17182°
Altitude
1,216.379 km
Speed
7.246 km/s
True Right ascension
23h 16m 58s
True Declination
0° 00' 00"
Sunlit
Object was in daylight at epoch
Visualization orbit readout
Latitude
Unknown
Longitude
Unknown
Altitude
Unknown
Speed
Unknown
Apparent Right ascension
Unknown
Apparent Declination
Unknown
Sunlit
N/A
Visualization observer readout
Local Sidereal Time
15:26:01
Azimuth
Unknown
Elevation
Unknown
Doppler factor
Unknown
Orbital elements
Apogee altitude
1,212.341 km
Perigee altitude
1,209.325 km
Semi-major axis
7,588.97 km
Eccentricity
0.0002
Inclination
87.8949°
RAAN
349.2451°
Arg. of periapsis
81.4227°
True anomaly
278.69019°
Mean anomaly
278.7127°
Eccentric anomaly
278.70145°
Mean motion
3.28299 °/min
Orbital period
109.66 mins
BSTAR
-0.000020844
Loading maneuver chart data...
Computing Atmospheric mass density...
Loading historical data...
Loading historical data...
Loading historical data...
Loading historical data...
Loading historical data...
Loading historical data...
Loading historical data...

Documentation

Showing up to 5 results
|